Regional Weather Roundup
Issued by NWS

Home | Current Version | Previous Version | Text Only | Print | Product List | Glossary On
Versions: 1 2 3 4 5 6 7 8 9 10 11 12 13 14 15 16 17 18 19 20 21 22 23 24 25 26 27 28 29 30 31 32 33 34 35 36 37 38 39 40 41 42 43 44 45 46 47 48 49 50
000
ASCA44 KEWX 281420
RWRMX

LATIN AMERICA AND CARIBBEAN REGIONAL WEATHER ROUNDUP
NATIONAL WEATHER SERVICE AUSTIN/SAN ANTONIO TX
900 AM CDT FRI AUG 28 2015

NOTE: "FAIR" INDICATED FEW OR NO CLOUDS BELOW 12,000 FEET WITH NO
SIGNIFICANT WEATHER AND/OR OBSTRUCTIONS TO VISIBILITY.

BAJA CALIFORNIA

CITY           SKY/WX    TMP DP  RH WIND       PRES   REMARKS
MEXICALI       CLEAR     86  66  51 E6        29.83
TIJUANA        CLEAR     72  63  73 NW3       29.92R

NORTHWESTERN MEXICO

CITY           SKY/WX    TMP DP  RH WIND       PRES   REMARKS
CULIACAN       MOSUNNY   84  81  89 CALM      29.86  HX  98
DURANGO        SUNNY     59  45  58 CALM      30.29R
GUAYMAS        MOSUNNY   84  73  70 CALM      29.77  HX  91
HERMOSILLO     MOSUNNY   82  72  69 CALM      29.87
OBREGON        PTSUNNY   84  75  74 E6        29.80  HX  92

NORTHEASTERN MEXICO

CITY           SKY/WX    TMP DP  RH WIND       PRES   REMARKS
MATAMOROS      MOSUNNY   79  72  78 CALM      30.00R
MONCLOVA         N/A    N/A N/A N/A MISG        N/A
MONTERREY      SUNNY     66  61  82 NW6       30.01S
NUEVO LAREDO   SUNNY     75  64  69 CALM      30.00R
PIEDRAS NEGRAS MOSUNNY   75  63  64 CALM      30.02R
REYNOSA        SUNNY     73  66  78 N2        29.99R HAZE
SALTILLO       SUNNY     68  48  49 S6        30.23S
TORREON        SUNNY     75  50  41 CALM      30.14R
CD. VICTORIA   PTSUNNY   73  73 100 CALM      30.01R

WESTERN MEXICO

CITY           SKY/WX    TMP DP  RH WIND       PRES   REMARKS
AGUASCALIENTES SUNNY     55  52  88 N5        30.30R
COLIMA         PTSUNNY   73  70  88 CALM      30.01
DEL BAJIO      SUNNY     61  52  72 CALM      30.33
GUADALAJARA    SUNNY     66  57  72 CALM      30.21R
MAZATLAN       MOSUNNY   77  75  94 NE9       29.84S
P. VALLARTA    CLOUDY    79  77  94 NE5       29.89R
URUAPAN        SUNNY     61  59  94 CALM      30.17
ZACATECAS        N/A    N/A N/A N/A MISG        N/A

CENTRAL MEXICO

CITY           SKY/WX    TMP DP  RH WIND       PRES   REMARKS
CUERNAVACA     PTSUNNY   66  63  88 CALM      30.15R
MEXICO CITY    CLOUDY    59  50  72 N5        30.34R
MORELIA        SUNNY     61  54  77 CALM      30.25S
POZA RICA      PTSUNNY   79  73  83 CALM      29.99R
PUEBLA         PTSUNNY   54  50  87 NW3       30.33R
QUERETARO      SUNNY     59  52  77 CALM      30.33R
S. LUIS POTOSI SUNNY     55  54  94 CALM      30.28R
TAMPICO        MOSUNNY   79  72  78 NW10      29.96R
TOLUCA         PTSUNNY   52  48  87 W5        30.38S FOG

SOUTHERN MEXICO

CITY           SKY/WX    TMP DP  RH WIND       PRES   REMARKS
ACAPULCO       PTSUNNY   81  73  78 N6        29.85R
B. DE HUATULCO CLOUDY    77  72  83 CALM      29.92S
OAXACA         PTSUNNY   66  57  72 N6        30.22R
P. ESCONDIDO   PTSUNNY   79  73  83 NE9       29.95R
VERACRUZ       LGT RAIN  75  73  94 S3        29.95R
ZIHUATANEJO    PTSUNNY   81  73  78 MISG      29.85S

YUCATAN PENINSULA

CITY           SKY/WX    TMP DP  RH WIND       PRES   REMARKS
CAMPECHE       PTSUNNY   77  73  88 CALM      29.92R
CANCUN         MOSUNNY   81  77  89 N12       29.95R
CHETUMAL       PTSUNNY   77  77 100 CALM      29.93R
CD. DEL CARMEN PTSUNNY   81  73  78 SE7       29.93R
COZUMEL        PTSUNNY   79  77  94 CALM      29.96R
MERIDA         CLOUDY    77  75  94 NE7       29.97R
MINATITLAN     CLOUDY    77  70  78 CALM      29.88R
TAPACHULA      MOSUNNY   81  75  83 CALM      29.86R
TUX. GUTIERREZ PTSUNNY   72  68  88 CALM      29.99R FOG
VILLAHERMOSA   CLOUDY    75  73  94 CALM      29.96R

CENTRAL AMERICA

CITY           SKY/WX    TMP DP  RH WIND       PRES   REMARKS
BELIZE CITY    MOSUNNY   81  77  89 W3        29.92R
MANAGUA        MOSUNNY   86  73  66 E7        29.86R HX  93

CARIBBEAN

CITY           SKY/WX    TMP DP  RH WIND       PRES   REMARKS
ARUBA          MOSUNNY   90  75  62 E17       29.83S HX 100
CURACAO        MOSUNNY   91  77  62 SE12      29.89S HX 105
KINGSTON       MOSUNNY   86  75  70 S5        29.89S HX  95
SAN JUAN       LGT RAIN  77  70  78 E13       30.01R
SANTO DOMINGO  PTSUNNY   82  75  78 NE13G26   29.86S
ST. CROIX      PTSUNNY   86  77  74 E20G28    30.02R HX  97
ST. KITTS      PTSUNNY   84  77  79 E12       30.03S HX  94
ST. MAARTEN    MOSUNNY   84  77  79 E12       30.03S HX  94
ST. THOMAS     MOSUNNY   88  79  74 SE17G28   30.02R HX 102

$$



USA.gov is the U.S. government's official web portal to all federal, state and local government web resources and services.